Pineville, WV

9:29 AM EDT on May 26, 2017 (GMT -0400)
Pineville

Weather History for KI16 - February, 2013

Change the Weather History Date:

Friday, February 15, 2013

  Actual Average (KBKW) Record (KBKW)
Temperature  
Mean Temperature 40 °F -  
Max Temperature 51 °F 44 °F 71 °F (1990)
Min Temperature 28 °F 28 °F -5 °F (1943)
Degree Days  
Heating Degree Days 26    
Moisture  
Dew Point 34 °F    
Average Humidity 93    
Maximum Humidity 100    
Minimum Humidity 59    
Precipitation  
Precipitation 0.00 in - - ()
Sea Level Pressure  
Sea Level Pressure 30.06 in    
Wind  
Wind Speed - (North)    
Max Wind Speed -    
Max Gust Speed -    
Visibility 8 miles    
Events Rain , Snow    
Averages and records for this station are not official NWS values.
T = Trace of Precipitation, MM = Missing Value Source: NWS Daily Summary

Daily Weather History Graph

Daily Weather History Graph

Search for Another Location

Airport or City:

Trip Planner

Search our weather history database for the weather conditions in past years. The results will help you decide how hot, cold, wet, or windy it might be!

Date:

Astronomy

Feb. 15, 2013 Rise Set
Actual Time 7:15 AM EST 6:05 PM EST
Civil Twilight 6:48 AM EST 6:32 PM EST
Nautical Twilight 6:17 AM EST 7:03 PM EST
Astronomical Twilight 5:47 AM EST 7:33 PM EST
Moon 9:58 AM EST (2/15) 11:57 PM EST (2/15)
Length of Visible Light 11h 44m
Length of Day
10h 50m
Waxing Crescent, 30% of the Moon is Illuminated
Feb 15
Waxing Crescent
Feb 17
First Quarter
Feb 25
Full
Mar 4
Last Quarter
Mar 11
New

Hourly Weather History & Observations

Time (EST) Temp. Dew Point Humidity Pressure Visibility Wind Dir Wind Speed Gust Speed Precip Events Conditions
12:15 AM 32.0 °F 31.8 °F 99% 30.03 in 10.0 mi North - - N/A   Scattered Clouds
12:35 AM 32.0 °F 32.0 °F 100% 30.03 in 10.0 mi North - - N/A   Scattered Clouds
12:55 AM 32.0 °F 32.0 °F 100% 30.03 in 10.0 mi North - - N/A   Scattered Clouds
1:15 AM 32.4 °F 32.4 °F 100% 30.04 in 10.0 mi North - - N/A   Mostly Cloudy
1:35 AM 32.5 °F 32.4 °F 99% 30.04 in 10.0 mi North - - N/A   Mostly Cloudy
1:55 AM 32.0 °F 32.0 °F 100% 30.04 in 10.0 mi North - - N/A   Scattered Clouds
2:15 AM 31.8 °F 31.8 °F 100% 30.05 in 10.0 mi North - - N/A   Clear
2:35 AM 31.5 °F 31.5 °F 100% 30.05 in 10.0 mi North - - N/A   Clear
2:55 AM 31.1 °F 31.1 °F 100% 30.05 in 10.0 mi North - - N/A   Clear
3:15 AM 30.9 °F 30.9 °F 100% 30.05 in 10.0 mi North - - N/A   Clear
3:35 AM 30.7 °F 30.7 °F 100% 30.05 in 10.0 mi North - - N/A   Scattered Clouds
3:55 AM 30.6 °F 30.6 °F 100% 30.05 in 10.0 mi North - - N/A   Scattered Clouds
4:15 AM 30.4 °F 30.4 °F 100% 30.04 in 10.0 mi North - - N/A   Scattered Clouds
4:35 AM 30.2 °F 30.2 °F 100% 30.04 in 10.0 mi North - - N/A   Clear
4:55 AM 30.2 °F 30.2 °F 100% 30.04 in 10.0 mi North - - N/A   Clear
5:15 AM 29.7 °F 29.7 °F 100% 30.05 in 10.0 mi North - - N/A   Clear
5:35 AM 29.3 °F 29.3 °F 100% 30.05 in 10.0 mi North - - N/A   Clear
5:55 AM 29.8 °F 29.8 °F 100% 30.05 in 10.0 mi North - - N/A   Clear
6:15 AM 29.3 °F 29.3 °F 100% 30.06 in 10.0 mi North - - N/A   Clear
6:35 AM 29.1 °F 29.1 °F 100% 30.06 in 10.0 mi North - - N/A   Clear
6:55 AM 28.9 °F 28.9 °F 100% 30.05 in 10.0 mi North - - N/A   Clear
7:15 AM 28.9 °F 28.9 °F 100% 30.06 in 10.0 mi North - - N/A   Clear
7:35 AM 28.9 °F 28.9 °F 100% 30.06 in 7.0 mi North - - N/A   Clear
7:55 AM 29.1 °F 29.1 °F 100% 30.08 in 10.0 mi North - - N/A   Clear
8:15 AM 30.0 °F 30.0 °F 100% 30.08 in 10.0 mi North - - N/A   Clear
8:35 AM 32.4 °F 32.4 °F 100% 30.08 in 10.0 mi North - - N/A   Clear
8:55 AM 34.3 °F 34.2 °F 99% 30.08 in 10.0 mi North - - N/A   Clear
9:15 AM 37.2 °F 36.3 °F 97% 30.08 in 10.0 mi North - - N/A   Clear
9:35 AM 39.7 °F 37.4 °F 91% 30.06 in 10.0 mi North - - N/A   Clear
9:55 AM 43.9 °F 38.1 °F 80% 30.06 in 10.0 mi North - - N/A   Clear
10:15 AM 46.9 °F 37.4 °F 69% 30.06 in 10.0 mi North - - N/A   Clear
10:35 AM 47.7 °F 36.7 °F 66% 30.06 in 10.0 mi North - - N/A   Clear
10:55 AM 48.2 °F 36.7 °F 64% 30.05 in 10.0 mi North - - N/A   Scattered Clouds
11:15 AM 48.7 °F 37.0 °F 64% 30.05 in 10.0 mi North - - N/A   Mostly Cloudy
11:35 AM 48.9 °F 37.4 °F 64% 30.04 in 10.0 mi North - - N/A   Overcast
11:55 AM 49.8 °F 37.9 °F 64% 30.03 in 10.0 mi North - - N/A   Overcast
12:35 PM 51.4 °F 37.6 °F 59% 30.02 in 10.0 mi North - - N/A   Mostly Cloudy
12:55 PM 48.7 °F 37.2 °F 64% 30.01 in 10.0 mi North - - N/A   Overcast
1:15 PM 49.5 °F 37.6 °F 64% 30.00 in 10.0 mi North - - N/A   Overcast
1:35 PM 47.7 °F 36.9 °F 66% 30.00 in 10.0 mi North - - N/A   Overcast
1:55 PM 46.0 °F 36.5 °F 69% 30.01 in 10.0 mi North - - N/A   Light Drizzle
2:15 PM 43.5 °F 37.0 °F 78% 30.02 in 7.0 mi North - - N/A Rain Light Rain
2:35 PM 39.2 °F 36.5 °F 90% 30.03 in 3.0 mi North - - N/A   Overcast
2:55 PM 37.6 °F 36.1 °F 95% 30.04 in 3.0 mi North - - N/A Snow Light Snow
3:35 PM 36.1 °F 35.8 °F 99% 30.05 in 1.5 mi North - - N/A Snow Light Snow
3:55 PM 36.7 °F 36.5 °F 99% 30.05 in 7.0 mi North - - N/A Snow Light Snow
4:15 PM 37.0 °F 36.9 °F 99% 30.05 in 3.0 mi North - - N/A Snow Light Snow
4:35 PM 36.5 °F 36.3 °F 99% 30.05 in 1.2 mi North - - N/A Snow Light Snow
4:55 PM 36.7 °F 36.7 °F 100% 30.06 in 4.0 mi North - - N/A Snow Light Snow
5:15 PM 36.5 °F 36.5 °F 100% 30.06 in 2.0 mi North - - N/A Snow Light Snow
5:35 PM 36.1 °F 36.1 °F 100% 30.06 in 1.5 mi North - - N/A Snow Light Snow
5:55 PM 36.0 °F 36.0 °F 100% 30.08 in 4.0 mi North - - N/A Snow Light Snow
6:15 PM 36.1 °F 36.1 °F 100% 30.08 in 7.0 mi North - - N/A Snow Light Snow
6:35 PM 36.3 °F 36.3 °F 100% 30.08 in 7.0 mi North - - N/A Snow Light Snow
6:55 PM 36.5 °F 36.5 °F 100% 30.08 in 7.0 mi North - - N/A   Overcast
7:15 PM 36.5 °F 36.5 °F 100% 30.09 in 7.0 mi North - - N/A   Overcast
7:35 PM 36.5 °F 36.5 °F 100% 30.10 in 7.0 mi North - - N/A   Overcast
7:55 PM 36.5 °F 36.5 °F 100% 30.10 in 10.0 mi North - - N/A   Overcast
8:15 PM 36.5 °F 36.5 °F 100% 30.10 in 7.0 mi North - - N/A   Overcast
8:35 PM 36.1 °F 36.1 °F 100% 30.10 in 7.0 mi North - - N/A   Overcast
8:55 PM 36.0 °F 36.0 °F 100% 30.10 in 10.0 mi North - - N/A   Overcast
9:15 PM 35.8 °F 35.8 °F 100% 30.10 in 10.0 mi North - - N/A   Overcast
9:35 PM 35.8 °F 35.6 °F 99% 30.10 in 7.0 mi North - - N/A Snow Light Snow
9:55 PM 35.8 °F 35.6 °F 99% 30.10 in 7.0 mi North - - N/A Snow Light Snow
10:15 PM 35.2 °F 34.9 °F 99% 30.10 in 7.0 mi North - - N/A   Overcast
10:35 PM 34.9 °F 34.7 °F 99% 30.10 in 7.0 mi North - - N/A   Overcast
10:55 PM 34.9 °F 34.5 °F 99% 30.10 in 10.0 mi North - - N/A   Overcast
11:15 PM 34.2 °F 33.8 °F 99% 30.09 in 10.0 mi North - - N/A   Mostly Cloudy
11:35 PM 34.0 °F 33.8 °F 99% 30.08 in 7.0 mi North - - N/A   Overcast
11:55 PM 33.8 °F 33.8 °F 100% 30.08 in 4.0 mi North - - N/A Snow Light Snow